Temp
78 89 89 83 68 69 65 68 77 73 74 81 81 80 79 81 76 67 83 83 86 83 78 77 73 73 73 72 72 72 72 71 71 71 70 70 70 70 70 69 69 70 70 71 71 70 70 69 69
83 86 84 79 64 61 66 76 70 76 80 80 79 79 78 76 79 76 78 82 85 79 79 77 71 73 72 72 72 71 71 71 71 70 70 70 69 69 69 69 69 69 70 71 71 70 69 68 68
81 85 75 70 66 61 66 73 76 78 78 78 77 79 80 77 78 79 82 84 86 78 79 73 71 72 72 71 71 71 71 70 70 70 69 69 69 68 68 69 69 69 70 69 70 70 69 69 69
82 81 78 64 62 70 72 76 76 76 78 78 79 75 78 79 79 83 81 84 84 78 76 71 71 72 72 71 71 71 70 70 69 69 69 69 68 68 68 69 69 68 68 69 69 68 68 68 67
82 77 64 62 64 72 76 78 78 75 78 78 78 75 76 77 81 82 78 82 79 79 75 75 70 71 71 71 70 70 70 69 69 68 68 68 67 67 68 68 68 68 68 68 68 68 67 67 66
71 74 61 59 66 73 77 79 77 76 79 79 75 77 76 78 79 80 75 82 81 79 75 74 68 69 70 70 70 69 69 69 68 68 67 67 66 66 65 67 67 68 68 67 67 66 65 65 65
66 67 61 63 66 70 74 80 74 76 78 77 80 74 75 73 80 75 73 78 78 77 75 74 75 70 66 67 67 68 67 67 67 66 66 64 64 64 64 64 65 66 66 66 66 65 64 64 63
71 69 61 64 63 65 77 74 77 77 77 82 82 74 74 76 74 71 72 74 75 75 75 76 74 75 73 70 63 64 65 65 65 63 62 62 62 62 62 64 63 64 64 65 64 64 63 62 62
73 61 58 62 64 68 76 71 79 79 77 78 78 78 75 75 69 66 66 69 73 72 75 76 74 76 75 72 65 62 62 62 62 62 60 61 70 69 68 59 61 62 62 63 64 64 63 63 62
65 60 62 71 73 71 74 72 76 72 74 74 75 74 75 68 65 64 63 65 66 68 72 76 75 75 75 74 70 71 68 70 70 69 69 70 69 67 67 61 59 61 61 63 66 66 66 66 69
65 59 69 71 72 72 70 71 76 71 69 77 76 75 69 64 65 66 66 69 66 70 72 75 75 75 74 73 72 71 70 69 69 68 69 68 70 69 69 69 69 69 64 68 68 66 66 65 66
59 67 67 69 71 67 66 72 71 71 75 76 81 83 72 66 67 69 67 67 67 71 70 73 75 74 73 73 72 72 70 69 69 68 67 68 68 68 68 68 68 68 68 64 65 65 65 62 62
59 62 68 69 67 66 68 65 68 71 78 77 73 73 73 71 71 72 71 69 71 72 72 71 73 73 73 71 71 71 70 69 70 68 67 68 68 66 68 67 68 68 68 65 64 64 62 61 62
66 63 64 67 66 66 62 64 68 71 76 77 74 72 74 73 73 72 70 66 72 74 73 71 71 72 72 70 70 69 70 69 69 69 68 67 68 67 67 67 68 68 66 65 63 62 61 60 61
62 56 61 63 65 62 66 57 61 72 74 73 75 75 74 75 76 73 71 68 70 74 74 71 70 71 70 70 69 69 69 68 68 68 67 67 68 67 67 67 67 67 66 65 63 63 63 61 61
54 56 48 62 64 64 61 53 68 74 72 71 74 77 75 76 76 77 75 72 71 74 73 72 71 69 69 69 69 69 68 68 68 68 67 66 67 67 67 66 66 66 67 65 64 62 61 60 60
53 46 51 55 65 62 58 55 68 74 73 72 74 76 77 77 78 79 78 75 73 74 74 71 70 68 67 68 68 68 67 67 67 68 67 66 66 66 67 66 65 66 66 66 65 62 63 59 59
45 48 51 52 61 59 57 55 66 69 67 70 72 75 77 78 79 79 79 78 76 76 75 73 70 68 68 67 66 66 65 66 66 67 66 66 66 65 66 65 63 65 66 65 64 62 62 61 59
53 53 51 57 63 55 54 56 62 67 69 67 68 71 74 76 79 81 80 79 77 76 74 73 69 68 68 65 63 62 61 63 63 65 65 66 65 65 65 65 64 65 65 65 65 63 62 62 63
50 48 49 56 61 52 54 55 61 65 66 69 70 71 72 75 77 77 77 77 76 75 74 73 71 69 68 67 65 64 63 64 64 63 63 65 64 64 64 64 64 65 63 64 64 63 62 63 64
49 46 48 49 56 54 51 49 54 62 66 68 70 72 74 74 76 76 75 74 75 74 73 73 72 70 69 68 66 64 64 63 61 60 61 62 64 63 63 64 64 63 65 64 64 64 62 61 61
41 52 50 49 47 41 55 39 54 62 64 66 68 70 71 73 77 79 77 73 72 73 75 74 72 71 69 68 63 61 58 57 59 60 62 62 64 63 62 62 63 63 64 64 63 64 64 63 60
44 52 51 48 45 43 45 42 49 59 58 64 68 71 72 74 75 77 78 76 74 72 72 72 72 70 68 67 63 61 61 62 61 62 60 61 61 62 61 62 62 62 63 64 64 63 63 63 63
48 47 48 48 43 30 41 43 46 54 58 64 70 72 73 74 75 77 78 77 74 72 71 70 69 69 67 66 63 62 63 62 59 59 58 59 59 60 60 61 61 62 63 63 63 63 63 63 64
43 40 29 26 27 29 47 42 47 61 64 66 68 71 74 76 75 75 75 74 72 70 69 68 68 67 66 65 63 63 65 63 60 59 59 58 58 58 58 60 60 61 63 63 63 63 62 63 63
41 39 32 22 26 33 46 39 48 63 66 67 68 70 72 74 75 73 73 72 70 69 68 67 67 66 66 64 63 64 65 63 63 61 61 59 59 59 60 59 60 62 63 63 63 62 62 62 62
36 32 47 38 31 34 44 48 57 61 60 60 61 66 68 70 69 68 69 71 69 68 67 66 66 66 65 63 64 63 64 62 62 61 61 60 61 59 59 59 60 62 62 63 63 61 60 61 61
37 46 31 36 25 25 38 43 46 54 58 62 62 62 65 67 69 69 67 65 67 67 67 67 67 65 64 63 63 62 62 62 62 61 59 60 60 59 59 59 61 61 61 62 62 60 60 60 59
37 34 37 41 38 31 31 42 58 59 63 63 62 60 64 66 66 66 63 63 65 66 65 65 65 63 60 61 62 61 61 62 61 59 59 59 59 59 59 60 60 60 60 61 60 59 59 59 59
43 41 39 31 30 38 39 42 52 53 54 54 57 55 54 62 66 62 60 60 61 61 61 61 62 60 60 61 61 60 61 61 59 58 59 59 59 59 59 60 60 60 60 60 59 58 59 59 58
MSLP
1011.77 1010.67 1010.21 1009.33 1008.17 1006.19 1004.21 1003.57 1003.78 1003.59 1003.62 1003.82 1004.24 1003.79 1003.91 1004.07 1004.70 1006.74 1007.89 1008.55 1008.74 1009.64 1010.85 1011.69 1012.11 1012.73 1013.16 1013.52 1013.79 1013.99 1014.15 1014.33 1014.44 1014.56 1014.71 1014.77 1014.84 1014.84 1014.79 1014.76 1014.66 1014.53 1014.39 1014.27 1014.12 1014.01 1013.96 1013.92 1013.85
1011.66 1010.69 1009.88 1008.18 1006.82 1004.71 1003.25 1002.95 1003.55 1003.46 1003.61 1004.61 1004.82 1004.79 1004.63 1004.65 1006.15 1007.50 1008.26 1008.86 1009.07 1010.20 1010.94 1011.63 1012.44 1012.96 1013.43 1013.76 1013.98 1014.20 1014.39 1014.59 1014.71 1014.85 1014.95 1015.02 1015.11 1015.10 1015.06 1015.04 1014.98 1014.82 1014.62 1014.40 1014.25 1014.21 1014.14 1014.05 1013.88
1011.50 1010.77 1009.34 1007.38 1005.84 1004.25 1002.99 1003.21 1003.39 1003.81 1004.63 1004.77 1004.85 1005.34 1005.12 1005.55 1006.96 1007.60 1008.38 1008.91 1009.20 1010.58 1011.01 1012.03 1012.67 1013.19 1013.64 1013.95 1014.18 1014.40 1014.66 1014.86 1015.01 1015.09 1015.21 1015.30 1015.35 1015.35 1015.32 1015.23 1015.13 1015.00 1014.84 1014.72 1014.57 1014.38 1014.33 1014.11 1013.88
1010.66 1009.75 1008.98 1007.10 1004.94 1004.13 1003.54 1003.49 1004.15 1004.14 1004.59 1005.07 1005.13 1005.20 1006.26 1007.33 1007.32 1007.70 1009.05 1009.13 1009.58 1010.69 1011.42 1012.40 1012.86 1013.40 1013.79 1014.11 1014.34 1014.63 1014.87 1015.11 1015.27 1015.30 1015.45 1015.50 1015.56 1015.58 1015.49 1015.42 1015.33 1015.28 1015.23 1015.03 1014.80 1014.68 1014.49 1014.29 1014.08
1010.52 1009.35 1007.92 1006.25 1005.02 1004.12 1003.87 1004.18 1004.29 1004.27 1004.07 1004.49 1005.25 1005.12 1006.15 1007.70 1008.10 1008.65 1009.63 1009.52 1010.32 1010.70 1011.72 1012.51 1013.05 1013.49 1013.89 1014.22 1014.51 1014.82 1015.07 1015.33 1015.46 1015.57 1015.73 1015.75 1015.84 1015.81 1015.76 1015.68 1015.61 1015.51 1015.42 1015.24 1015.01 1014.89 1014.65 1014.39 1014.19
1009.81 1009.02 1007.44 1005.78 1004.56 1003.91 1003.91 1004.33 1004.51 1004.35 1004.19 1004.56 1005.23 1005.41 1006.40 1008.06 1008.34 1008.88 1010.18 1009.72 1010.39 1010.85 1011.77 1012.67 1013.38 1013.62 1013.88 1014.33 1014.75 1015.03 1015.32 1015.52 1015.71 1015.93 1016.07 1016.15 1016.20 1016.17 1016.12 1015.90 1015.78 1015.68 1015.57 1015.47 1015.31 1015.10 1014.90 1014.65 1014.51
1009.78 1008.48 1007.22 1006.08 1004.65 1003.64 1003.69 1004.20 1004.53 1004.30 1003.98 1004.24 1004.89 1005.22 1006.66 1008.18 1008.51 1009.77 1010.47 1010.38 1010.67 1011.13 1011.78 1012.46 1013.15 1013.78 1014.07 1014.54 1014.96 1015.28 1015.52 1015.79 1016.04 1016.29 1016.40 1016.52 1016.59 1016.61 1016.51 1016.32 1016.15 1016.05 1015.92 1015.71 1015.55 1015.37 1015.17 1014.96 1014.81
1009.83 1008.73 1007.45 1006.11 1005.10 1004.27 1004.16 1004.82 1004.95 1004.51 1004.07 1004.66 1005.13 1005.03 1006.03 1007.82 1009.48 1010.35 1010.72 1010.75 1011.12 1011.56 1011.93 1012.20 1012.94 1013.45 1014.03 1014.70 1015.23 1015.58 1015.84 1016.11 1016.36 1016.60 1016.73 1016.81 1016.84 1016.88 1016.83 1016.56 1016.58 1016.47 1016.32 1016.08 1015.86 1015.65 1015.37 1015.07 1014.93
1010.42 1008.89 1006.74 1005.76 1005.27 1004.70 1004.75 1005.06 1004.76 1005.18 1004.86 1004.89 1005.47 1005.73 1007.04 1008.39 1010.03 1010.63 1011.01 1011.09 1011.25 1011.75 1011.95 1012.18 1012.76 1013.07 1013.69 1014.52 1015.41 1015.82 1016.13 1016.40 1016.62 1016.76 1016.89 1016.84 1016.40 1016.48 1016.48 1017.07 1016.94 1016.76 1016.61 1016.30 1016.02 1015.76 1015.32 1014.80 1014.77
1009.86 1008.21 1006.32 1005.95 1005.35 1005.09 1005.08 1005.40 1004.86 1005.23 1004.90 1004.90 1005.56 1006.91 1007.49 1009.08 1009.99 1010.54 1010.87 1010.99 1011.38 1011.80 1011.99 1012.29 1012.67 1013.03 1013.58 1014.25 1015.12 1015.25 1015.92 1015.93 1016.16 1016.30 1016.44 1016.44 1016.51 1016.82 1016.75 1017.02 1016.96 1016.79 1016.51 1016.24 1015.81 1015.58 1015.04 1014.76 1014.44
1009.03 1007.61 1006.76 1006.04 1006.21 1006.35 1006.10 1005.68 1005.59 1005.26 1004.60 1004.38 1004.75 1006.10 1007.88 1008.93 1009.67 1010.19 1010.67 1010.84 1011.37 1011.75 1012.04 1012.25 1012.61 1013.04 1013.58 1014.15 1014.66 1015.10 1015.52 1015.93 1016.21 1016.39 1016.52 1016.66 1016.58 1016.60 1016.55 1016.46 1016.40 1016.33 1016.30 1015.99 1015.84 1015.84 1015.64 1015.44 1015.15
1008.82 1007.74 1007.42 1006.82 1006.74 1007.09 1006.70 1006.12 1005.51 1005.40 1004.64 1005.05 1004.72 1005.03 1007.16 1008.28 1008.76 1009.22 1009.96 1010.46 1011.11 1011.42 1011.92 1012.27 1012.61 1013.10 1013.49 1014.07 1014.52 1014.88 1015.31 1015.79 1016.07 1016.35 1016.62 1016.56 1016.53 1016.67 1016.57 1016.53 1016.47 1016.44 1016.35 1016.52 1016.18 1016.09 1016.04 1016.11 1015.97
1008.77 1007.97 1007.42 1007.17 1007.29 1007.28 1007.12 1006.48 1005.88 1004.99 1004.88 1005.25 1005.73 1006.08 1006.61 1007.50 1008.03 1008.78 1009.56 1010.26 1010.58 1010.66 1011.47 1012.17 1012.59 1013.03 1013.42 1014.01 1014.34 1014.80 1015.17 1015.64 1015.93 1016.35 1016.67 1016.64 1016.65 1016.80 1016.73 1016.71 1016.57 1016.54 1016.56 1016.72 1016.50 1016.57 1016.63 1016.58 1016.37
1008.45 1008.12 1007.52 1007.18 1007.10 1007.22 1007.06 1006.15 1005.99 1005.00 1005.21 1004.76 1005.27 1005.91 1006.18 1006.65 1007.24 1008.08 1008.94 1009.67 1009.52 1009.94 1010.71 1011.80 1012.38 1012.88 1013.36 1013.96 1014.40 1014.83 1015.15 1015.56 1016.00 1016.24 1016.54 1016.76 1016.73 1016.77 1016.87 1016.77 1016.65 1016.68 1016.97 1016.95 1016.98 1017.07 1017.04 1016.95 1016.88
1009.33 1008.45 1007.62 1006.97 1006.88 1006.83 1006.85 1005.49 1004.70 1004.78 1004.91 1004.48 1004.38 1004.83 1005.44 1005.80 1006.39 1006.99 1007.92 1008.90 1009.38 1009.46 1010.24 1011.15 1012.01 1012.66 1013.28 1013.83 1014.35 1014.74 1015.18 1015.62 1015.93 1016.23 1016.60 1016.74 1016.77 1016.88 1016.85 1016.83 1016.80 1016.98 1017.21 1017.14 1017.25 1017.29 1017.25 1017.26 1017.11
1009.48 1008.29 1006.76 1005.90 1006.03 1006.45 1006.88 1003.40 1003.56 1003.69 1003.89 1003.68 1003.62 1003.61 1004.25 1004.84 1005.40 1006.13 1006.93 1007.99 1008.92 1009.11 1009.66 1010.64 1011.46 1012.27 1013.06 1013.60 1014.16 1014.55 1015.08 1015.48 1015.89 1016.22 1016.50 1016.79 1016.90 1016.88 1016.89 1016.93 1017.04 1017.28 1017.20 1017.32 1017.47 1017.60 1017.57 1017.57 1017.47
1008.51 1006.42 1005.70 1005.34 1005.22 1005.85 1005.82 1003.65 1002.99 1002.90 1002.56 1002.50 1002.56 1002.69 1002.82 1003.31 1004.23 1004.95 1005.78 1006.91 1007.82 1008.35 1009.05 1009.98 1011.02 1011.82 1012.70 1013.37 1014.01 1014.42 1015.00 1015.41 1015.89 1016.12 1016.38 1016.74 1016.94 1017.00 1016.88 1017.01 1017.30 1017.41 1017.37 1017.37 1017.67 1017.94 1017.82 1017.91 1017.99
1007.22 1006.31 1005.73 1004.66 1004.57 1005.05 1004.40 1003.38 1002.69 1002.56 1002.50 1002.15 1002.05 1001.76 1001.80 1001.93 1002.51 1003.79 1004.68 1005.75 1006.81 1007.51 1008.33 1009.32 1010.45 1011.36 1012.30 1013.11 1013.93 1014.57 1015.12 1015.35 1015.75 1016.01 1016.34 1016.72 1016.90 1017.11 1017.07 1017.26 1017.56 1017.52 1017.46 1017.62 1017.85 1018.06 1018.18 1018.12 1018.27
1006.96 1005.54 1004.56 1003.96 1004.14 1004.83 1004.03 1003.54 1002.58 1002.18 1001.95 1001.85 1001.90 1001.49 1001.26 1001.27 1002.02 1002.71 1003.66 1004.61 1005.75 1006.71 1007.52 1008.45 1009.53 1010.61 1011.65 1012.51 1013.35 1014.22 1014.72 1015.24 1015.76 1016.03 1016.38 1016.58 1016.86 1017.08 1017.15 1017.29 1017.55 1017.52 1017.53 1017.71 1017.98 1018.14 1018.21 1018.17 1018.19
1006.88 1005.63 1003.93 1004.22 1003.88 1004.90 1004.06 1002.83 1002.15 1001.55 1001.08 1000.73 1000.62 1000.57 1000.67 1000.90 1001.19 1001.90 1002.86 1003.70 1004.55 1005.55 1006.58 1007.57 1008.56 1009.68 1010.78 1011.77 1012.65 1013.53 1014.31 1014.94 1015.49 1016.08 1016.46 1016.55 1016.89 1017.10 1017.21 1017.33 1017.49 1017.53 1017.73 1017.85 1018.06 1018.18 1018.22 1018.25 1018.33
1005.86 1004.84 1004.45 1004.42 1004.42 1004.64 1004.41 1002.36 1001.43 1000.56 1000.33 999.89 999.55 999.63 999.72 999.76 1000.09 1000.87 1001.84 1002.82 1003.67 1004.53 1005.54 1006.55 1007.64 1008.76 1009.95 1011.07 1012.23 1013.28 1014.08 1014.78 1015.41 1015.95 1016.30 1016.61 1016.76 1017.12 1017.32 1017.39 1017.51 1017.69 1017.69 1017.76 1018.00 1018.17 1018.22 1018.05 1018.41
1005.65 1005.44 1006.08 1005.30 1005.25 1003.69 1003.78 1000.51 999.54 998.71 998.01 997.89 998.07 998.29 998.57 998.85 999.15 999.58 1000.48 1001.75 1002.73 1003.46 1004.63 1005.82 1006.91 1008.03 1009.31 1010.34 1011.48 1012.26 1013.00 1013.91 1014.65 1015.33 1015.88 1016.37 1016.63 1017.01 1017.32 1017.47 1017.60 1017.74 1017.72 1017.80 1018.01 1018.24 1018.20 1018.13 1018.15
1004.82 1006.63 1005.83 1005.86 1005.32 1004.97 1003.87 1002.17 997.27 998.32 997.09 996.27 996.49 996.72 997.25 997.67 998.12 998.51 999.14 1000.09 1001.58 1002.75 1003.72 1004.85 1006.08 1007.24 1008.54 1009.64 1010.77 1011.59 1012.43 1013.25 1014.04 1014.83 1015.56 1016.11 1016.55 1016.93 1017.31 1017.48 1017.68 1017.86 1017.83 1017.90 1017.97 1018.14 1018.24 1018.21 1017.98
1007.93 1006.88 1006.04 1005.93 1005.78 1004.72 1001.85 1001.95 996.70 996.44 995.50 995.84 995.43 995.61 995.82 996.41 996.84 997.48 998.27 999.36 1000.63 1001.99 1003.00 1004.08 1005.26 1006.48 1007.87 1008.96 1010.04 1010.69 1011.44 1012.39 1013.46 1014.32 1015.09 1015.74 1016.33 1016.84 1017.22 1017.41 1017.63 1017.77 1017.83 1017.98 1018.04 1018.30 1018.31 1018.37 1018.19
1007.69 1006.84 1005.94 1005.70 1004.93 1002.26 1000.49 1000.60 995.27 994.91 994.90 994.99 994.83 994.98 994.98 995.15 995.82 996.64 997.58 998.59 999.95 1001.12 1002.30 1003.50 1004.71 1005.83 1007.09 1008.23 1009.28 1010.01 1010.69 1011.69 1012.72 1013.57 1014.38 1015.17 1015.84 1016.39 1016.95 1017.28 1017.52 1017.71 1017.84 1018.03 1018.12 1018.33 1018.51 1018.47 1018.46
1005.93 1005.70 1003.18 1002.42 1001.84 998.52 999.51 996.93 994.27 994.59 994.57 994.86 994.97 994.88 994.96 994.80 995.25 996.09 997.24 998.21 999.28 1000.34 1001.52 1002.56 1003.66 1004.88 1006.26 1007.49 1008.49 1009.37 1010.15 1011.14 1012.03 1013.00 1013.72 1014.59 1015.25 1015.88 1016.56 1017.03 1017.27 1017.47 1017.73 1018.04 1018.18 1018.52 1018.82 1018.81 1018.81
1005.50 1004.22 1002.35 1001.63 1001.50 999.99 997.65 995.89 995.21 994.72 994.72 994.86 994.77 994.68 994.66 995.06 995.75 996.56 997.22 997.95 999.09 999.94 1000.77 1001.71 1002.80 1004.08 1005.31 1006.55 1007.74 1008.71 1009.55 1010.62 1011.51 1012.56 1013.43 1014.24 1014.96 1015.68 1016.32 1016.71 1017.08 1017.33 1017.64 1017.98 1018.17 1018.58 1018.97 1019.06 1019.13
1005.33 1003.85 1004.13 1002.57 1001.11 999.31 996.38 995.22 993.94 993.62 993.59 994.02 994.22 994.55 994.81 995.19 995.71 996.35 997.34 998.19 999.03 999.86 1000.65 1001.58 1002.61 1003.56 1004.78 1006.06 1007.07 1008.01 1009.10 1010.32 1011.19 1012.15 1013.11 1013.92 1014.73 1015.48 1016.06 1016.56 1016.94 1017.27 1017.63 1017.84 1018.25 1018.73 1019.06 1019.24 1019.42
1004.20 1003.13 1002.88 1002.05 1000.30 998.39 996.34 994.59 993.92 993.96 993.79 993.88 994.38 994.78 994.98 995.23 995.72 996.42 997.53 998.27 999.12 999.92 1000.59 1001.34 1002.40 1003.43 1004.84 1005.90 1006.75 1007.69 1008.75 1009.86 1010.94 1011.94 1012.85 1013.63 1014.45 1015.21 1015.80 1016.32 1016.77 1017.15 1017.58 1017.87 1018.21 1018.72 1019.05 1019.34 1019.61
1003.27 1002.07 1002.27 1000.94 999.57 997.95 996.80 995.37 995.45 995.53 995.48 995.60 995.62 996.23 996.43 995.95 995.85 996.90 997.97 998.54 999.25 1000.10 1000.84 1001.59 1002.49 1003.47 1004.63 1005.63 1006.54 1007.48 1008.51 1009.55 1010.68 1011.62 1012.58 1013.36 1014.15 1014.94 1015.59 1016.16 1016.63 1017.03 1017.34 1017.87 1018.25 1018.64 1019.02 1019.36 1019.56
Wind_Speed
16 10 7 7 7 8 12 8 13 6 7 1 5 4 4 7 7 4 9 4 15 17 15 15 16 14 12 12 11 10 10 9 10 9 8 8 8 7 7 7 8 8 8 8 8 9 9 9 9
12 11 7 7 8 12 11 11 9 8 3 3 2 5 6 3 6 9 10 7 14 17 14 14 14 13 12 12 11 11 10 9 9 8 8 8 8 8 8 8 8 8 8 8 9 10 11 10 11
11 8 8 6 12 14 11 4 7 3 2 3 3 2 6 5 4 12 11 13 14 13 12 14 15 13 12 12 11 11 10 9 9 9 8 8 8 8 8 8 9 9 10 12 11 10 11 11 11
5 6 6 10 16 13 15 2 2 6 4 6 3 5 4 5 5 7 13 14 14 12 15 16 16 14 13 12 12 11 10 9 9 9 8 8 8 8 8 9 10 11 11 11 11 10 10 11 10
7 6 11 14 19 18 7 8 8 7 5 8 7 3 2 5 6 11 13 11 14 12 13 15 16 15 14 12 11 10 10 9 9 8 7 9 9 8 9 9 10 10 10 10 12 12 11 11 12
7 5 13 15 19 16 10 11 10 10 9 6 6 7 4 6 10 12 12 11 13 13 12 15 12 14 13 11 11 10 9 8 8 7 6 8 8 8 8 9 9 10 11 11 11 12 12 12 11
11 10 15 19 19 13 10 9 10 13 11 12 1 6 7 9 10 11 12 10 9 12 11 11 12 11 12 11 10 10 9 9 8 7 7 8 7 7 7 8 9 10 11 10 12 13 13 12 12
6 10 20 19 17 19 12 4 8 14 13 3 3 6 6 13 12 11 10 8 11 9 9 12 10 10 10 10 11 11 10 9 8 7 6 5 5 2 4 3 9 9 9 10 12 14 12 8 6
4 9 15 21 19 16 5 7 8 3 11 6 7 1 7 17 13 11 8 7 11 8 10 10 9 9 10 10 9 11 11 9 7 6 3 4 2 3 3 6 6 8 7 9 11 11 10 12 5
10 13 21 17 18 14 14 8 12 6 11 11 10 7 11 16 14 14 11 12 10 10 11 11 10 9 9 8 9 8 8 5 4 3 2 2 3 5 4 2 1 1 5 4 6 9 9 10 8
9 20 17 16 10 14 16 13 11 11 15 14 15 15 13 16 15 16 16 16 12 12 9 11 10 10 10 7 6 4 4 3 3 4 3 2 1 1 1 2 3 4 5 7 8 9 8 10 8
15 19 17 19 10 9 15 15 14 16 16 7 11 6 17 17 18 18 18 16 14 14 11 12 11 10 10 7 6 6 5 4 3 3 3 2 1 2 2 3 3 4 4 6 5 5 8 9 11
18 20 18 13 17 14 15 15 18 18 14 5 3 3 14 15 16 15 15 15 17 17 15 13 12 10 10 9 6 6 5 4 4 4 4 1 2 2 2 3 3 4 5 5 5 6 6 7 9
13 12 19 19 16 17 16 21 21 16 18 16 11 10 11 15 16 15 16 17 18 16 16 14 14 12 11 9 8 6 5 5 4 4 4 3 2 2 2 2 3 5 5 5 6 5 5 6 8
18 21 19 20 17 16 11 23 27 20 21 15 19 16 13 14 14 18 18 18 18 15 16 16 15 13 12 11 9 7 6 6 5 4 5 4 3 4 2 2 3 4 3 5 5 5 5 6 7
12 18 21 17 21 13 13 22 17 21 23 25 22 18 16 19 17 17 17 18 18 16 18 17 14 15 13 11 9 7 7 6 5 5 5 5 4 4 3 2 3 3 2 4 5 4 5 5 8
20 18 21 19 10 14 20 17 16 20 16 20 23 23 21 19 19 19 18 17 18 18 18 18 17 16 14 12 9 8 9 6 5 5 5 6 5 4 3 3 3 2 2 5 5 3 5 5 8
18 21 22 23 13 20 21 24 18 9 9 19 20 19 20 22 23 20 20 19 18 18 19 18 15 17 16 10 8 7 7 6 6 6 5 7 5 5 3 3 3 2 3 4 4 5 5 4 6
25 21 25 20 20 13 20 21 22 19 20 18 16 15 19 21 18 17 19 18 19 18 20 20 19 18 13 11 10 8 8 7 5 5 6 8 6 5 4 3 4 2 3 4 6 5 4 3 2
29 29 30 18 13 8 15 22 20 21 22 23 22 23 22 19 18 18 17 19 21 21 20 19 20 19 16 11 9 8 8 7 6 6 7 7 7 6 5 5 4 4 3 4 5 4 1 1 1
31 33 26 25 10 10 16 23 25 26 25 25 24 23 23 23 22 20 20 20 19 20 21 19 19 19 18 16 11 8 8 6 6 7 7 7 8 7 5 5 4 4 2 3 4 4 4 1 1
30 25 25 24 19 19 13 17 21 16 23 25 24 23 23 22 20 20 20 20 19 20 18 19 19 19 18 18 15 16 11 10 7 8 7 7 9 8 6 5 5 4 3 3 2 1 2 3 4
32 20 22 22 21 14 22 15 19 18 25 24 21 21 22 21 21 21 19 20 21 19 19 19 20 20 19 18 17 14 12 9 8 8 10 9 9 8 7 6 5 4 3 3 2 2 3 2 2
20 22 21 15 13 13 28 21 18 20 22 17 18 20 21 21 22 21 18 16 18 18 18 19 21 20 20 19 19 18 17 14 11 10 9 8 7 6 7 7 5 5 3 4 3 2 3 2 4
26 18 9 11 9 17 18 19 28 15 16 16 21 20 20 18 18 18 17 17 17 19 20 19 21 21 21 21 19 18 16 16 15 14 10 11 8 7 8 8 6 5 5 4 3 3 3 3 4
31 26 11 16 14 25 12 16 19 13 22 22 17 15 14 15 11 13 16 16 18 20 22 22 22 22 21 21 20 17 17 11 10 12 10 8 8 8 10 8 7 7 6 5 4 3 3 3 4
21 30 30 14 1 7 12 27 23 13 10 11 16 15 17 15 12 13 13 14 15 18 21 22 22 21 22 21 18 18 16 15 12 13 11 9 9 8 10 9 8 8 7 6 5 4 4 4 4
25 25 23 16 15 13 15 21 13 16 22 22 17 14 13 12 14 13 12 12 13 15 17 18 18 19 20 20 18 15 16 14 13 12 12 12 10 11 11 9 9 9 8 6 6 5 5 6 4
25 24 17 20 18 13 9 11 3 15 17 11 7 5 10 14 12 12 10 11 11 12 14 16 16 18 18 17 17 17 15 15 13 12 11 12 12 12 11 10 10 9 9 7 6 6 6 7 7
28 28 27 17 24 21 11 9 4 5 8 7 9 3 5 9 7 10 10 12 12 12 13 14 15 16 16 16 16 16 15 15 14 13 13 13 12 12 11 11 10 9 9 8 7 7 6 7 9
Wind_Direction
294 290 288 260 242 233 256 232 245 236 222 17 318 275 294 14 347 13 130 126 130 128 135 146 129 138 134 128 121 112 104 96 88 81 72 66 58 52 49 42 31 22 15 11 5 2 357 352 342
305 303 249 268 248 245 249 206 205 229 19 343 259 248 254 91 70 116 137 161 150 126 152 140 126 132 132 128 118 110 103 95 87 80 71 67 60 55 49 41 32 25 16 7 7 4 2 350 340
276 274 266 230 241 247 264 110 242 2 207 222 236 268 341 67 84 139 98 154 144 136 141 123 123 133 132 126 117 109 102 93 85 76 70 69 60 55 47 44 36 23 17 15 5 4 358 356 348
293 207 245 251 248 240 275 197 173 257 180 174 260 242 121 31 131 104 138 147 131 155 123 131 130 135 133 127 117 110 103 94 86 79 76 70 63 57 47 35 32 23 13 8 1 1 354 350 347
235 264 255 236 251 256 236 282 298 267 239 191 196 220 107 122 111 126 140 164 140 149 127 141 136 136 132 126 118 114 104 96 88 82 75 69 57 47 40 35 29 27 20 10 10 1 351 344 349
248 252 250 249 248 241 251 263 246 250 241 161 217 239 111 114 157 134 151 167 161 138 146 135 132 135 126 125 120 113 104 99 91 79 70 65 57 53 42 27 34 24 18 13 10 3 0 360 358
246 241 252 265 273 272 237 216 237 244 229 212 135 224 91 159 137 136 161 159 156 140 146 146 149 123 114 112 111 111 105 96 88 79 72 64 52 44 40 39 29 23 15 14 10 2 1 4 7
280 258 258 253 261 269 257 201 258 253 247 94 193 229 185 157 132 150 157 175 157 161 157 161 151 157 145 135 108 101 97 98 97 93 82 80 104 70 33 333 35 25 16 8 8 6 1 355 2
264 247 244 247 255 268 282 253 208 329 276 220 185 318 102 129 147 142 154 183 163 164 178 166 164 161 150 140 123 111 104 110 125 131 119 207 59 56 68 50 16 21 4 6 9 359 330 311 229
221 238 243 257 270 282 276 268 272 233 224 214 197 123 132 142 164 167 172 172 174 175 182 176 176 163 157 148 164 143 137 153 143 139 128 62 58 45 23 69 265 2 328 280 2 357 340 8 20
222 244 257 257 271 280 280 268 252 254 254 229 215 181 161 164 177 183 188 186 177 186 184 186 175 168 167 165 160 152 151 145 140 129 138 91 94 100 106 62 49 28 18 25 21 23 28 31 28
250 252 257 267 276 268 256 270 261 244 250 3 306 255 167 181 184 190 190 191 179 199 189 190 181 173 177 168 176 158 157 154 155 137 139 155 127 88 57 45 44 38 33 36 26 37 39 24 28
237 257 264 255 265 248 269 257 256 262 253 185 37 261 185 195 194 194 192 194 192 200 183 190 186 179 178 177 173 164 150 172 135 154 145 164 97 89 58 61 49 49 45 36 44 35 35 27 31
277 258 263 253 246 252 249 255 251 248 248 249 208 220 214 209 203 192 192 199 207 193 188 187 189 185 178 185 171 167 159 143 161 153 146 137 108 120 97 94 68 63 47 50 62 37 36 38 40
261 271 261 246 247 243 259 256 248 248 258 246 233 221 225 216 210 205 198 201 211 196 190 184 186 184 181 186 174 169 163 161 158 153 151 141 145 129 117 106 84 63 70 65 75 57 49 49 54
259 247 255 245 233 224 212 257 255 232 233 243 238 230 219 225 211 214 202 201 203 203 194 185 183 181 181 184 176 172 158 170 160 159 152 156 148 147 141 135 94 74 78 86 82 60 62 60 65
233 254 237 250 225 213 212 261 249 242 240 243 237 235 231 221 217 214 206 200 199 203 194 187 184 181 180 179 174 171 163 166 162 163 159 160 158 158 143 125 102 120 105 96 103 66 71 72 68
232 236 245 257 220 218 227 240 250 221 263 246 244 241 233 231 220 215 211 200 200 199 194 189 185 181 177 167 166 161 167 171 166 169 166 162 160 159 156 131 127 172 130 117 119 117 90 84 103
251 248 237 241 228 227 242 255 253 248 243 236 241 244 245 226 227 224 208 208 198 198 195 192 185 182 173 168 170 168 175 170 173 166 155 174 160 164 165 147 150 182 142 132 141 131 128 107 38
239 243 248 258 246 224 267 264 255 253 248 251 246 241 236 237 232 213 208 204 202 199 198 192 188 181 180 172 171 165 173 176 168 167 174 174 166 167 169 161 165 160 149 155 178 180 205 351 329
234 234 237 246 255 239 273 268 259 252 249 246 244 242 242 237 228 216 201 201 202 200 196 194 188 184 181 174 161 157 158 154 160 174 172 178 176 168 174 172 167 168 185 160 178 195 229 207 94
242 234 249 250 249 253 223 277 266 262 241 227 233 231 233 234 232 220 202 198 197 198 192 193 187 185 181 176 166 167 164 164 181 173 169 170 177 172 174 172 177 170 188 168 152 185 221 242 129
251 248 245 243 245 265 255 263 264 238 244 240 236 227 231 227 226 221 217 191 194 188 187 187 185 186 180 181 174 169 173 171 160 163 162 166 173 173 176 181 174 176 197 148 150 153 179 199 142
268 243 241 233 233 238 239 237 260 242 246 249 247 238 222 227 219 218 210 200 191 186 184 181 183 186 179 182 178 177 176 165 162 164 165 167 166 170 177 177 178 181 174 167 126 108 107 115 108
223 221 194 203 200 233 222 224 235 245 232 250 242 238 236 225 214 212 212 191 185 183 181 176 180 185 182 184 183 180 176 164 170 166 166 164 167 171 176 173 174 184 180 150 141 123 121 122 115
208 211 208 196 196 234 191 229 226 238 243 248 252 246 251 235 219 206 200 194 190 183 182 177 181 182 181 182 184 179 174 168 170 172 164 167 167 168 165 170 174 178 177 161 145 124 109 117 102
223 215 219 247 95 263 213 236 268 257 243 240 246 241 235 220 206 197 198 193 189 187 183 181 180 180 180 181 178 177 173 167 167 165 163 163 158 159 162 167 169 168 172 170 151 135 130 124 109
232 218 218 235 240 230 228 236 242 198 225 228 236 224 231 226 211 194 185 187 190 188 185 181 181 180 178 177 177 173 166 166 159 158 160 159 153 155 160 164 167 165 167 168 153 139 140 132 130
223 220 217 226 231 232 243 239 283 237 255 249 246 293 254 215 206 186 183 174 179 182 180 179 179 174 174 175 173 168 167 162 153 154 158 155 151 159 161 165 165 166 167 168 159 149 152 137 137
219 215 214 223 215 237 251 236 49 341 323 306 278 276 300 273 174 157 170 164 166 171 170 173 176 169 173 173 168 165 161 160 153 155 155 156 157 160 162 165 165 169 167 166 164 152 157 149 146